Location: D�pe
(52.6057°N, 8.1808°E)
Time: 14:34:26
(UTC+00:00)

CZ-4C R/B - Pass Details

Date: 29 October 2020
Orbit: 624 x 1378 km, 63.4° (Epoch: 28 November)

Event Time Altitude Azimuth Distance (km) Brightness Sun altitude
Rises 20:27:13 0° 313° (NW) 3,798 6.5 -39.4°
Reaches altitude 10° 20:29:46 10° 308° (NW) 2,946 5.7 -39.8°
Enters shadow 20:34:50 42° 272° (W) 1,657 3.8 -40.4°
